Location: Passo di Treia
(43.2833°N, 13.3333°E)
Time: 09:47:41
(UTC+00:00)

Okean O Rocket - Pass Details

Date: 09 December 2019
Orbit: 624 x 644 km, 98.2° (Epoch: 28 January)

Event Time Altitude Azimuth Distance (km) Brightness Sun altitude
Rises 16:29:33 0° 190° (S) 2,894 5.5 -10.4°
Reaches altitude 10° 16:31:56 10° 201° (SSW) 1,991 4.8 -10.8°
Maximum altitude 16:35:46 30° 264° (W) 1,122 3.7 -11.4°
Drops below altitude 10° 16:39:36 10° 326° (NW) 2,004 4.4 -12.1°
Sets 16:42:02 0° 337° (NNW) 2,917 5.1 -12.5°
